Regional Weather Roundup
Issued by NWS

Home | Current Version | Previous Version | Graphics & Text | Print | Product List | Glossary Off
Versions: 1 2 3 4 5 6 7 8 9 10 11 12 13 14 15 16 17 18 19 20 21 22 23 24 25 26 27 28 29 30 31 32 33 34 35 36 37 38 39 40 41 42 43 44 45 46 47 48 49 50

000
ASUS43 KLSX 240710
RWRMO

WEATHER SUMMARY FOR MISSOURI
NATIONAL WEATHER SERVICE SPRINGFIELD MO
100 AM CST FRI FEB 24 2017

NOTE: "FAIR" INDICATES FEW OR NO CLOUDS BELOW 12,000 FEET WITH NO
       SIGNIFICANT WEATHER AND/OR OBSTRUCTIONS TO VISIBILITY.
       CURRENT SKY AND/OR WEATHER CONDITIONS ARE NOT AVAILABLE FOR
       CHILLICOTHE AND FARMINGTON.

MOZ001>031-035>038-043-044-053-054-240800-
...NORTHERN AND WESTERN MISSOURI...

CITY           SKY/WX    TMP DP  RH WIND       PRES   REMARKS
KANSAS CTY INT CLOUDY    43  41  93 NW21G29   29.47R
KANSAS C DTWN  CLOUDY    46  42  86 NW16G25   29.46R
LEE`S SUMMIT   CLOUDY    48  47  96 NW23      29.44R
ST JOSEPH      CLOUDY    42  41  96 N20       29.47F
CHILLICOTHE      N/A     50  49  96 NW8       29.40R
KIRKSVILLE     CLOUDY    50  50 100 E7        29.35F FOG

$$
MOZ066>068-077>081-088>096-101>105-240800-
...SOUTHWEST MISSOURI...

CITY           SKY/WX    TMP DP  RH WIND       PRES   REMARKS
SPRINGFIELD    PTCLDY    67  51  56 S16       29.43R
JOPLIN         CLEAR     70  50  49 SW18      29.42
BRANSON        PTCLDY    66  52  59 S9        29.49F

$$
MOZ032>034-039>042-045>050-055>058-069>072-240800-
...CENTRAL MISSOURI...

CITY           SKY/WX    TMP DP  RH WIND       PRES   REMARKS
COLUMBIA       PTCLDY    61  55  81 S7        29.44S
JEFFERSON CITY PTCLDY    60  54  80 E8        29.42R
ROLLA          CLEAR     64  55  72 S17       29.45R
SEDALIA        CLOUDY    61  52  72 SE7       29.39F
WHITEMAN AFB   PTCLDY    61  53  73 SE6       29.35F
WARRENSBURG    PTCLDY    52  46  82 W15       29.40R
OSAGE BEACH    LGT RAIN  66  56  70 SE6       29.42S

$$
MOZ051-052-059>065-240800-
...EAST CENTRAL MISSOURI...

CITY           SKY/WX    TMP DP  RH WIND       PRES   REMARKS
ST LOUIS INTL  PTCLDY    67  53  61 S15       29.47F
SPIRIT OF STL  CLEAR     65  54  67 S3        29.46F
ST CHARLES     PTCLDY    56  53  90 E9        29.46F

$$
MOZ072>076-082>087-097>100-106>115-240800-
...SOUTH CENTRAL AND SOUTHEAST MISSOURI...

CITY           SKY/WX    TMP DP  RH WIND       PRES   REMARKS
CAPE GIRARDEAU CLEAR     61  56  83 S13       29.61R
FARMINGTON     CLEAR     64  54  69 S22G29    29.53F
POPLAR BLUFF   CLEAR     62  57  83 S14       29.59
WEST PLAINS    CLEAR     63  54  72 S9        29.56R

$$




USA.gov is the U.S. government's official web portal to all federal, state and local government web resources and services.